Gainesville, TX

7:13 AM CDT on June 28, 2017 (GMT -0500)
Gainesville Municipal

Weather History for KGLE - January, 2014

Change the Weather History Date:

Monday, January 13, 2014

  Actual Average (KDTO) Record (KDTO)
Temperature  
Mean Temperature 48 °F -  
Max Temperature 60 °F 53 °F 71 °F (2002)
Min Temperature 35 °F 32 °F 18 °F (1997)
Degree Days  
Heating Degree Days 18    
Moisture  
Dew Point 23 °F    
Average Humidity 39    
Maximum Humidity 82    
Minimum Humidity 10    
Precipitation  
Precipitation 0.00 in - - ()
Sea Level Pressure  
Sea Level Pressure 30.00 in    
Wind  
Wind Speed 11 mph (WNW)    
Max Wind Speed 21 mph    
Max Gust Speed 29 mph    
Visibility 10 miles    
Events      
Averages and records for this station are not official NWS values.
T = Trace of Precipitation, MM = Missing Value Source: NWS Daily Summary

Daily Weather History Graph

Daily Weather History Graph

Search for Another Location

Airport or City:

Trip Planner

Search our weather history database for the weather conditions in past years. The results will help you decide how hot, cold, wet, or windy it might be!

Date:

Astronomy

Jan. 13, 2014 Rise Set
Actual Time 7:33 AM CST 5:41 PM CST
Civil Twilight 7:06 AM CST 6:08 PM CST
Nautical Twilight 6:35 AM CST 6:39 PM CST
Astronomical Twilight 6:05 AM CST 7:09 PM CST
Moon 3:57 PM CST (1/13) 5:24 AM CST (1/13)
Length of Visible Light 11h 02m
Length of Day
10h 08m
Waxing Gibbous, 95% of the Moon is Illuminated
Jan 13
Waxing Gibbous
Jan 15
Full
Jan 23
Last Quarter
Jan 30
New
Feb 6
First Quarter

Hourly Weather History & Observations

Time (CST) Temp. Windchill Dew Point Humidity Pressure Visibility Wind Dir Wind Speed Gust Speed Precip Events Conditions
12:15 AM 58.3 °F - 51.3 °F 77% 29.78 in 10.0 mi South 12.7 mph - N/A   Clear
12:35 AM 56.5 °F - 50.0 °F 79% 29.80 in 10.0 mi South 10.4 mph - N/A   Clear
12:55 AM 55.8 °F - 49.6 °F 80% 29.80 in 10.0 mi South 9.2 mph - N/A   Clear
1:15 AM 55.8 °F - 49.6 °F 80% 29.80 in 10.0 mi South 9.2 mph - N/A   Clear
1:35 AM 55.8 °F - 50.2 °F 82% 29.81 in 10.0 mi South 5.8 mph - N/A   Clear
1:55 AM 55.6 °F - 49.8 °F 81% 29.83 in 10.0 mi NNW 9.2 mph - N/A   Clear
2:15 AM 55.8 °F - 47.8 °F 75% 29.84 in 10.0 mi WNW 6.9 mph - N/A   Clear
2:35 AM 53.6 °F - 40.3 °F 61% 29.84 in 10.0 mi NNW 15.0 mph - N/A   Clear
2:55 AM 53.6 °F - 33.1 °F 46% 29.86 in 10.0 mi NNW 16.1 mph 21.9 mph N/A   Clear
3:15 AM 53.6 °F - 32.2 °F 44% 29.87 in 10.0 mi NNW 11.5 mph - N/A   Clear
3:35 AM 53.6 °F - 32.4 °F 44% 29.88 in 10.0 mi NNW 16.1 mph - N/A   Clear
3:55 AM 53.6 °F - 33.1 °F 46% 29.88 in 10.0 mi North 9.2 mph - N/A   Clear
4:15 AM 49.1 °F - 32.0 °F 52% 29.89 in 10.0 mi NNW 9.2 mph - N/A   Clear
4:35 AM 48.4 °F - 31.8 °F 53% 29.89 in 10.0 mi NW 10.4 mph - N/A   Clear
4:55 AM 48.4 °F - 32.0 °F 53% 29.90 in 10.0 mi WNW 11.5 mph - N/A   Clear
5:15 AM 48.4 °F - 33.1 °F 56% 29.90 in 10.0 mi WNW 8.1 mph - N/A   Clear
5:35 AM 47.3 °F - 32.5 °F 57% 29.92 in 10.0 mi NW 11.5 mph - N/A   Clear
5:55 AM 48.4 °F - 32.4 °F 54% 29.92 in 10.0 mi NW 12.7 mph - N/A   Clear
6:15 AM 46.2 °F 41.2 °F 31.5 °F 56% 29.93 in 10.0 mi WNW 10.4 mph - N/A   Clear
6:35 AM 45.9 °F 40.4 °F 31.6 °F 58% 29.95 in 10.0 mi WNW 11.5 mph - N/A   Clear
6:55 AM 45.9 °F 40.0 °F 30.9 °F 56% 29.95 in 10.0 mi WNW 12.7 mph - N/A   Clear
7:15 AM 45.9 °F 39.1 °F 28.6 °F 51% 29.96 in 10.0 mi WNW 16.1 mph - N/A   Clear
7:35 AM 45.5 °F 39.2 °F 28.6 °F 52% 29.97 in 10.0 mi WNW 13.8 mph - N/A   Clear
7:55 AM 44.4 °F 38.2 °F 27.3 °F 51% 29.98 in 10.0 mi WNW 12.7 mph - N/A   Clear
8:15 AM 45.0 °F 38.9 °F 27.7 °F 51% 30.00 in 10.0 mi WNW 12.7 mph - N/A   Clear
8:35 AM 46.2 °F 40.8 °F 27.0 °F 47% 30.02 in 10.0 mi WNW 11.5 mph - N/A   Clear
8:55 AM 48.4 °F - 27.5 °F 44% 30.03 in 10.0 mi WNW 11.5 mph 17.3 mph N/A   Clear
9:15 AM 48.4 °F - 24.8 °F 40% 30.05 in 10.0 mi NW 12.7 mph - N/A   Clear
9:35 AM 49.6 °F - 23.7 °F 36% 30.05 in 10.0 mi NW 15.0 mph 20.7 mph N/A   Clear
9:55 AM 50.9 °F - 23.2 °F 34% 30.06 in 10.0 mi NW 17.3 mph 23.0 mph N/A   Clear
10:15 AM 50.9 °F - 22.6 °F 33% 30.07 in 10.0 mi NW 18.4 mph - N/A   Clear
10:35 AM 53.6 °F - 24.6 °F 33% 30.08 in 10.0 mi WNW 16.1 mph - N/A   Clear
10:55 AM 53.6 °F - 23.4 °F 31% 30.07 in 10.0 mi NW 13.8 mph - N/A   Clear
11:15 AM 53.8 °F - 22.1 °F 29% 30.07 in 10.0 mi WNW 13.8 mph - N/A   Clear
11:35 AM 55.4 °F - 23.0 °F 29% 30.07 in 10.0 mi WNW 17.3 mph 20.7 mph N/A   Clear
11:55 AM 55.8 °F - 22.5 °F 28% 30.07 in 10.0 mi WNW 13.8 mph 21.9 mph N/A   Clear
12:15 PM 55.9 °F - 21.0 °F 26% 30.05 in 10.0 mi WNW 13.8 mph 19.6 mph N/A   Clear
12:35 PM 58.3 °F - 20.8 °F 23% 30.05 in 10.0 mi WNW 13.8 mph - N/A   Clear
12:55 PM 58.3 °F - 20.5 °F 23% 30.04 in 10.0 mi WNW 16.1 mph 23.0 mph N/A   Clear
1:15 PM 58.5 °F - 19.0 °F 22% 30.04 in 10.0 mi West 15.0 mph - N/A   Clear
1:35 PM 59.2 °F - 17.2 °F 20% 30.03 in 10.0 mi WNW 18.4 mph 26.5 mph N/A   Clear
1:55 PM 59.5 °F - 15.4 °F 18% 30.03 in 10.0 mi WNW 18.4 mph 28.8 mph N/A   Clear
2:15 PM 60.4 °F - 14.2 °F 16% 30.04 in 10.0 mi WNW 18.4 mph 26.5 mph N/A   Clear
2:35 PM 60.8 °F - 7.3 °F 12% 30.04 in 10.0 mi WNW 19.6 mph 28.8 mph N/A   Clear
2:55 PM 60.8 °F - 7.5 °F 12% 30.04 in 10.0 mi WNW 20.7 mph 26.5 mph N/A   Clear
3:15 PM 60.8 °F - 4.3 °F 10% 30.04 in 10.0 mi NW 20.7 mph 28.8 mph N/A   Clear
3:35 PM 60.8 °F - 4.8 °F 11% 30.04 in 10.0 mi WNW 18.4 mph 25.3 mph N/A   Clear
3:55 PM 60.8 °F - 4.5 °F 11% 30.05 in 10.0 mi WNW 16.1 mph 24.2 mph N/A   Clear
4:15 PM 59.5 °F - 3.0 °F 10% 30.05 in 10.0 mi WNW 13.8 mph 24.2 mph N/A   Clear
4:35 PM 59.5 °F - 2.3 °F 10% 30.05 in 10.0 mi WNW 17.3 mph 20.7 mph N/A   Clear
4:55 PM 58.3 °F - 4.6 °F 12% 30.05 in 10.0 mi WNW 11.5 mph 19.6 mph N/A   Clear
5:15 PM 57.9 °F - 7.3 °F 13% 30.05 in 10.0 mi WNW 10.4 mph - N/A   Clear
5:35 PM 55.8 °F - 9.0 °F 15% 30.05 in 10.0 mi WNW 8.1 mph - N/A   Clear
5:55 PM 53.6 °F - 11.5 °F 19% 30.05 in 10.0 mi WNW 5.8 mph - N/A   Clear
6:15 PM 52.2 °F - 13.6 °F 22% 30.06 in 10.0 mi West 4.6 mph - N/A   Clear
6:35 PM 49.6 °F - 13.3 °F 23% 30.06 in 10.0 mi West 3.5 mph - N/A   Clear
6:55 PM 48.4 °F - 14.0 °F 25% 30.07 in 10.0 mi West 5.8 mph - N/A   Clear
7:15 PM 48.4 °F - 14.4 °F 26% 30.07 in 10.0 mi West 4.6 mph - N/A   Clear
7:35 PM 48.4 °F - 14.0 °F 25% 30.07 in 10.0 mi West 3.5 mph - N/A   Clear
7:55 PM 46.0 °F 43.9 °F 15.1 °F 29% 30.08 in 10.0 mi WSW 4.6 mph - N/A   Clear
8:15 PM 45.9 °F 44.6 °F 16.0 °F 30% 30.08 in 10.0 mi WSW 3.5 mph - N/A   Clear
8:35 PM 44.1 °F 40.8 °F 16.0 °F 32% 30.08 in 10.0 mi WSW 5.8 mph - N/A   Clear
8:55 PM 43.0 °F 40.3 °F 15.4 °F 33% 30.08 in 10.0 mi West 4.6 mph - N/A   Clear
9:15 PM 43.3 °F 41.7 °F 14.4 °F 31% 30.08 in 10.0 mi West 3.5 mph - N/A   Clear
9:35 PM 41.0 °F 38.0 °F 15.6 °F 36% 30.08 in 10.0 mi WSW 4.6 mph - N/A   Clear
9:55 PM 41.2 °F 39.2 °F 16.2 °F 36% 30.08 in 10.0 mi West 3.5 mph - N/A   Clear
10:15 PM 38.7 °F - 18.5 °F 44% 30.08 in 10.0 mi Calm Calm - N/A   Clear
10:35 PM 40.5 °F - 17.8 °F 40% 30.08 in 10.0 mi Calm Calm - N/A   Clear
10:55 PM 39.6 °F - 17.4 °F 41% 30.07 in 10.0 mi Calm Calm - N/A   Clear
11:15 PM 38.3 °F - 20.1 °F 48% 30.07 in 10.0 mi Calm Calm - N/A   Clear
11:35 PM 35.8 °F 33.0 °F 22.1 °F 58% 30.06 in 10.0 mi SSE 3.5 mph - N/A   Clear
11:55 PM 35.8 °F 31.9 °F 21.2 °F 55% 30.06 in 10.0 mi SSW 4.6 mph - N/A   Clear